| time (UTC) | temp F | wind direction | speed MPH | gust MPH | rain 1hr in | rain 24hr in | rain mn in | humidity % | barometer mb |
| 20260505010003 | 74 | 216 | 0.0 | 3.0 | 0.00 | 0.00 | 0.00 | 77 | 1011.2 |
| 20260505004509 | 75 | 144 | 0.0 | 4.0 | 0.00 | 0.00 | 0.00 | 76 | 1011.1 |
| 20260505003001 | 75 | 223 | 0.0 | 5.0 | 0.00 | 0.00 | 0.00 | 75 | 1011.2 |
| 20260505001600 | 76 | 144 | 0.0 | 2.0 | 0.00 | 0.00 | 0.00 | 74 | 1011.2 |
| 20260504234622 | 77 | 188 | 0.0 | 4.0 | 0.00 | 0.00 | 0.00 | 72 | 1011.3 |
| 20260504233057 | 78 | 148 | 0.0 | 2.0 | 0.00 | 0.00 | 0.00 | 72 | 1011.4 |
| 20260504231556 | 77 | 200 | 0.0 | 6.0 | 0.00 | 0.00 | 0.00 | 72 | 1011.5 |
| 20260504230050 | 77 | 232 | 1.0 | 7.0 | 0.00 | 0.00 | 0.00 | 72 | 1011.8 |
| 20260504224559 | 77 | 139 | 0.0 | 5.0 | 0.00 | 0.00 | 0.00 | 71 | 1011.8 |
| 20260504223047 | 77 | 141 | 1.0 | 5.0 | 0.00 | 0.00 | 0.00 | 72 | 1012.2 |
| 20260504221557 | 77 | 131 | 0.0 | 4.0 | 0.00 | 0.00 | 0.00 | 71 | 1012.4 |
| 20260504220047 | 77 | 205 | 0.0 | 6.0 | 0.00 | 0.00 | 0.00 | 70 | 1012.4 |
| 20260504214550 | 78 | 147 | 0.0 | 4.0 | 0.00 | 0.00 | 0.00 | 69 | 1012.6 |
| 20260504213051 | 79 | 135 | 0.0 | 3.0 | 0.00 | 0.00 | 0.00 | 69 | 1012.6 |
| 20260504211541 | 79 | 218 | 0.0 | 7.0 | 0.00 | 0.00 | 0.00 | 67 | 1012.7 |
| 20260504210049 | 80 | 169 | 0.0 | 5.0 | 0.00 | 0.00 | 0.00 | 66 | 1013.0 |
| 20260504204617 | 80 | 168 | 0.0 | 4.0 | 0.00 | 0.00 | 0.00 | 66 | 1013.0 |
| 20260504203036 | 80 | 150 | 1.0 | 5.0 | 0.00 | 0.00 | 0.00 | 66 | 1013.3 |
| 20260504201532 | 81 | 191 | 0.0 | 5.0 | 0.00 | 0.00 | 0.00 | 64 | 1013.5 |
| 20260504200037 | 80 | 219 | 0.0 | 9.0 | 0.00 | 0.00 | 0.00 | 66 | 1013.5 |
| 20260504194538 | 80 | 18 | 0.0 | 4.0 | 0.00 | 0.00 | 0.00 | 65 | 1013.6 |
| 20260504193028 | 81 | 238 | 0.0 | 5.0 | 0.00 | 0.00 | 0.00 | 64 | 1014.1 |
| 20260504191529 | 81 | 129 | 0.0 | 4.0 | 0.00 | 0.00 | 0.00 | 64 | 1014.2 |
| 20260504190033 | 81 | 230 | 1.0 | 5.0 | 0.00 | 0.00 | 0.00 | 63 | 1014.2 |
| 20260504184525 | 80 | 197 | 1.0 | 6.0 | 0.00 | 0.00 | 0.00 | 64 | 1014.3 |
| 20260504183024 | 80 | 75 | 0.0 | 7.0 | 0.00 | 0.00 | 0.00 | 66 | 1014.3 |
| 20260504181518 | 80 | 187 | 0.0 | 10.0 | 0.00 | 0.00 | 0.00 | 65 | 1014.6 |
| 20260504180018 | 80 | 172 | 0.0 | 6.0 | 0.00 | 0.00 | 0.00 | 65 | 1014.8 |
| 20260504174515 | 79 | 163 | 0.0 | 6.0 | 0.00 | 0.00 | 0.00 | 65 | 1014.8 |
| 20260504173012 | 79 | 154 | 0.0 | 5.0 | 0.00 | 0.00 | 0.00 | 65 | 1015.3 |
| 20260504171532 | 78 | 128 | 1.0 | 8.0 | 0.00 | 0.00 | 0.00 | 64 | 1015.3 |
| 20260504081523 | 63 | 204 | 0.0 | 0.0 | 0.00 | 0.00 | 0.00 | 79 | 1016.7 |
| 20260504044547 | 64 | 203 | 0.0 | 0.0 | 0.00 | 0.00 | 0.00 | 72 | 1018.8 |
| 20260504043048 | 63 | 203 | 0.0 | 0.0 | 0.00 | 0.00 | 0.00 | 72 | 1018.9 |
| 20260504041549 | 64 | 203 | 0.0 | 0.0 | 0.00 | 0.00 | 0.00 | 70 | 1018.7 |
| 20260504040046 | 64 | 203 | 0.0 | 0.0 | 0.00 | 0.00 | 0.00 | 69 | 1018.7 |
| 20260504034600 | 65 | 203 | 0.0 | 0.0 | 0.00 | 0.00 | 0.00 | 68 | 1018.8 |
| 20260504033044 | 66 | 203 | 0.0 | 0.0 | 0.00 | 0.00 | 0.00 | 66 | 1018.8 |
| 20260504031543 | 66 | 203 | 0.0 | 0.0 | 0.00 | 0.00 | 0.00 | 65 | 1018.6 |
| 20260504030044 | 67 | 219 | 0.0 | 0.0 | 0.00 | 0.00 | 0.00 | 64 | 1018.6 |
| 20260504024543 | 67 | 219 | 0.0 | 0.0 | 0.00 | 0.00 | 0.00 | 64 | 1018.7 |
| 20260504023042 | 68 | 217 | 0.0 | 0.0 | 0.00 | 0.00 | 0.00 | 63 | 1018.7 |
| 20260504021541 | 68 | 217 | 0.0 | 1.0 | 0.00 | 0.00 | 0.00 | 63 | 1018.6 |
| 20260504020041 | 69 | 216 | 0.0 | 1.0 | 0.00 | 0.00 | 0.00 | 61 | 1018.6 |
| 20260504014553 | 70 | 207 | 0.0 | 1.0 | 0.00 | 0.00 | 0.00 | 61 | 1018.5 |
| 20260504013042 | 70 | 222 | 0.0 | 1.0 | 0.00 | 0.00 | 0.00 | 60 | 1018.6 |
| 20260504011543 | 71 | 181 | 0.0 | 1.0 | 0.00 | 0.00 | 0.00 | 58 | 1018.5 |